Location: Brabourne
(51.1333°N, 1.0000°E)
Time: 05:29:25
(UTC+00:00)

NOSS 3-1 (A) - Pass Details

Date: 26 October 2021
Orbit: 721 x 1491 km, 63.4° (Epoch: 22 November)

Event Time Altitude Azimuth Distance (km) Brightness Sun altitude
Rises 21:52:06 0° 288° (WNW) 3,493 7.0 -45.8°
Reaches altitude 10° 21:54:47 10° 299° (WNW) 2,659 6.3 -46.1°
Enters shadow 21:56:26 17° 311° (NW) 2,238 5.8 -46.3°
